User: anonymous   Login
Location: Unspecified
(0.0000°N, 0.0000°E)
Time: 18:55:48
(UTC+00:00)
Language:

DICE 2 - Orbit

View from above orbital plane
View from above orbital plane
View from above satellite
View from above satellite

Ground track
Ground track

The orbit data is extracted from the following two-line orbital elements,

1 37852U 11061C   17145.89844516 +.00002573 +00000-0 +14302-3 0  9997
2 37852 101.7219 008.1013 0172021 144.1212 217.1697 15.03832377303030
Epoch (UTC): 25 May 2017 21:33:45
Eccentricity: 0.0172021
inclination: 101.7219°
perigee height: 436 km
apogee height: 674 km
right ascension of ascending node: 8.1013°
argument of perigee: 144.1212°
revolutions per day: 15.03832377
mean anomaly at epoch: 217.1697°
orbit number at epoch: 30303

The dashed part of the orbit path shows where the satellite is in the earth's shadow,  

DLR